TimePDT,TemperatureF,Dew PointF,Humidity,Sea Level PressureIn,VisibilityMPH,Wind Direction,Wind SpeedMPH,Gust SpeedMPH,PrecipitationIn,Events,Conditions,WindDirDegrees,DateUTC
12:15 AM,62.6,39.2,42,30.04,10.0,Calm,Calm,-,N/A,,Clear,0,2012-10-31 07:15:00
12:55 AM,59.0,39.2,48,30.03,10.0,ESE,6.9,-,N/A,,Clear,120,2012-10-31 07:55:00
1:15 AM,62.6,37.4,39,30.02,10.0,SE,3.5,-,N/A,,Clear,130,2012-10-31 08:15:00
1:35 AM,62.6,35.6,37,30.02,10.0,Calm,Calm,-,N/A,,Partly Cloudy,0,2012-10-31 08:35:00
1:55 AM,62.6,35.6,37,30.02,10.0,Calm,Calm,-,N/A,,Partly Cloudy,0,2012-10-31 08:55:00
2:15 AM,62.6,35.6,37,30.01,10.0,Calm,Calm,-,N/A,,Partly Cloudy,0,2012-10-31 09:15:00
2:35 AM,62.6,35.6,37,30.01,10.0,Calm,Calm,-,N/A,,Scattered Clouds,0,2012-10-31 09:35:00
2:55 AM,62.6,35.6,37,30.02,10.0,Calm,Calm,-,N/A,,Mostly Cloudy,0,2012-10-31 09:55:00
3:15 AM,62.6,35.6,37,30.01,10.0,Calm,Calm,-,N/A,,Mostly Cloudy,0,2012-10-31 10:15:00
3:35 AM,60.8,35.6,39,30.02,10.0,Calm,Calm,-,N/A,,Scattered Clouds,0,2012-10-31 10:35:00
3:55 AM,59.0,35.6,42,30.02,10.0,Calm,Calm,-,N/A,,Scattered Clouds,0,2012-10-31 10:55:00
4:15 AM,59.0,37.4,45,30.02,10.0,Calm,Calm,-,N/A,,Mostly Cloudy,0,2012-10-31 11:15:00
4:35 AM,57.2,37.4,48,30.01,10.0,Calm,Calm,-,N/A,,Overcast,0,2012-10-31 11:35:00
5:15 AM,57.2,35.6,44,30.01,10.0,Calm,Calm,-,N/A,,Overcast,0,2012-10-31 12:15:00
5:35 AM,57.2,35.6,44,30.01,10.0,Calm,Calm,-,N/A,,Overcast,0,2012-10-31 12:35:00
6:15 AM,57.2,35.6,44,30.00,10.0,SE,8.1,-,N/A,,Mostly Cloudy,130,2012-10-31 13:15:00
6:35 AM,55.4,35.6,47,30.00,10.0,SE,9.2,-,N/A,,Mostly Cloudy,140,2012-10-31 13:35:00
6:55 AM,57.2,35.6,44,30.00,10.0,SE,9.2,-,N/A,,Overcast,140,2012-10-31 13:55:00
7:15 AM,59.0,35.6,42,30.00,10.0,SSE,10.4,-,N/A,,Mostly Cloudy,150,2012-10-31 14:15:00
7:35 AM,59.0,35.6,42,30.01,10.0,SSE,3.5,-,N/A,,Partly Cloudy,160,2012-10-31 14:35:00
7:55 AM,57.2,35.6,44,30.02,10.0,Calm,Calm,-,N/A,,Clear,0,2012-10-31 14:55:00
8:15 AM,59.0,37.4,45,30.03,10.0,SSW,6.9,-,N/A,,Clear,210,2012-10-31 15:15:00
8:35 AM,57.2,39.2,51,30.03,10.0,Calm,Calm,-,N/A,,Clear,0,2012-10-31 15:35:00
8:55 AM,53.6,44.6,72,30.04,10.0,Calm,Calm,-,N/A,,Clear,0,2012-10-31 15:55:00
9:15 AM,57.2,39.2,51,30.04,10.0,SSE,9.2,-,N/A,,Clear,160,2012-10-31 16:15:00
9:35 AM,59.0,39.2,48,30.04,10.0,South,3.5,-,N/A,,Clear,170,2012-10-31 16:35:00
9:55 AM,57.2,44.6,63,30.04,10.0,Calm,Calm,-,N/A,,Clear,0,2012-10-31 16:55:00
10:15 AM,55.4,42.8,63,30.04,10.0,SSE,6.9,-,N/A,,Clear,160,2012-10-31 17:15:00
10:35 AM,57.2,46.4,67,30.04,10.0,Calm,Calm,-,N/A,,Clear,0,2012-10-31 17:35:00
10:55 AM,55.4,46.4,72,30.04,10.0,Calm,Calm,-,N/A,,Clear,0,2012-10-31 17:55:00
11:15 AM,57.2,48.2,72,30.04,10.0,South,6.9,-,N/A,,Clear,190,2012-10-31 18:15:00
11:35 AM,59.0,46.4,63,30.04,10.0,South,8.1,-,N/A,,Clear,190,2012-10-31 18:35:00
11:55 AM,59.0,48.2,67,30.05,10.0,Calm,Calm,-,N/A,,Clear,0,2012-10-31 18:55:00
12:15 PM,59.0,48.2,67,30.05,10.0,Calm,Calm,-,N/A,,Clear,0,2012-10-31 19:15:00
12:55 PM,59.0,48.2,67,30.04,10.0,Calm,Calm,-,N/A,,Clear,0,2012-10-31 19:55:00
1:15 PM,59.0,48.2,67,30.03,10.0,Calm,Calm,-,N/A,,Clear,0,2012-10-31 20:15:00
1:35 PM,59.0,46.4,63,30.02,10.0,South,5.8,-,N/A,,Clear,180,2012-10-31 20:35:00
1:55 PM,59.0,48.2,67,30.02,10.0,Calm,Calm,-,N/A,,Clear,0,2012-10-31 20:55:00
2:15 PM,60.8,48.2,63,30.02,10.0,Calm,Calm,-,N/A,,Clear,0,2012-10-31 21:15:00
2:35 PM,59.0,48.2,67,30.02,10.0,SW,3.5,-,N/A,,Clear,230,2012-10-31 21:35:00
2:55 PM,57.2,48.2,72,30.02,10.0,SW,8.1,-,N/A,,Clear,230,2012-10-31 21:55:00
3:15 PM,57.2,48.2,72,30.02,10.0,Calm,Calm,-,N/A,,Clear,0,2012-10-31 22:15:00
3:35 PM,55.4,48.2,77,30.03,10.0,Calm,Calm,-,N/A,,Clear,0,2012-10-31 22:35:00
3:55 PM,55.4,48.2,77,30.04,10.0,Calm,Calm,-,N/A,,Clear,0,2012-10-31 22:55:00
4:15 PM,55.4,48.2,77,30.03,10.0,Calm,Calm,-,N/A,,Clear,0,2012-10-31 23:15:00
4:35 PM,55.4,48.2,77,30.02,10.0,ESE,10.4,-,N/A,,Clear,110,2012-10-31 23:35:00
4:55 PM,55.4,48.2,77,30.03,10.0,Calm,Calm,-,N/A,,Clear,0,2012-10-31 23:55:00
5:15 PM,55.4,48.2,77,30.02,10.0,Calm,Calm,-,N/A,,Clear,0,2012-11-01 00:15:00
5:35 PM,53.6,48.2,82,30.03,10.0,Calm,Calm,-,N/A,,Clear,0,2012-11-01 00:35:00
6:15 PM,51.8,50.0,94,30.02,10.0,Calm,Calm,-,N/A,,Clear,0,2012-11-01 01:15:00
6:35 PM,53.6,48.2,82,30.03,10.0,Calm,Calm,-,N/A,,Clear,0,2012-11-01 01:35:00
7:15 PM,53.6,48.2,82,30.04,10.0,Calm,Calm,-,N/A,,Overcast,0,2012-11-01 02:15:00
7:35 PM,53.6,46.4,77,30.04,10.0,Calm,Calm,-,N/A,,Overcast,0,2012-11-01 02:35:00
7:55 PM,53.6,44.6,72,30.03,10.0,Calm,Calm,-,N/A,,Mostly Cloudy,0,2012-11-01 02:55:00
8:15 PM,53.6,46.4,77,30.04,10.0,Calm,Calm,-,N/A,,Mostly Cloudy,0,2012-11-01 03:15:00
8:35 PM,51.8,48.2,88,30.03,10.0,Calm,Calm,-,N/A,,Mostly Cloudy,0,2012-11-01 03:35:00
8:55 PM,51.8,48.2,88,30.03,10.0,Calm,Calm,-,N/A,,Mostly Cloudy,0,2012-11-01 03:55:00
9:15 PM,53.6,46.4,77,30.04,10.0,Calm,Calm,-,N/A,,Mostly Cloudy,0,2012-11-01 04:15:00
9:35 PM,53.6,46.4,77,30.04,10.0,Calm,Calm,-,N/A,,Overcast,0,2012-11-01 04:35:00
10:15 PM,53.6,44.6,72,30.05,10.0,Calm,Calm,-,N/A,,Mostly Cloudy,0,2012-11-01 05:15:00
10:35 PM,53.6,44.6,72,30.04,10.0,Calm,Calm,-,N/A,,Mostly Cloudy,0,2012-11-01 05:35:00
10:55 PM,51.8,46.4,82,30.05,10.0,Calm,Calm,-,N/A,,Overcast,0,2012-11-01 05:55:00
11:15 PM,51.8,46.4,82,30.04,10.0,Calm,Calm,-,N/A,,Overcast,0,2012-11-01 06:15:00
11:35 PM,50.0,46.4,87,30.05,10.0,Calm,Calm,-,N/A,,Overcast,0,2012-11-01 06:35:00
11:55 PM,51.8,46.4,82,30.05,10.0,Calm,Calm,-,N/A,,Overcast,0,2012-11-01 06:55:00